Location: Oberkirch
(48.5323°N, 8.0787°E)
Time: 21:07:47
(UTC+00:00)

Tiros 1 - Pass Details

Date: 17 February 2026
Orbit: 618 x 649 km, 48.4° (Epoch: 7 March)

Event Time Altitude Azimuth Distance (km) Brightness Sun altitude
Rises 08:00:29 0° 213° (SSW) 2,904 10.5 12.3°
Reaches altitude 10° 08:03:05 10° 201° (SSW) 1,995 9.9 12.7°
Maximum altitude 08:06:52 26° 145° (SE) 1,232 10.2 13.2°
Drops below altitude 10° 08:10:40 10° 89° (E) 1,989 10.7 13.7°
Sets 08:13:15 0° 77° (ENE) 2,894 11.1 14.1°
